Location: Favars
(45.2630°N, 1.6776°E)
Time: 20:17:53
(UTC+00:00)

Daily predictions for brighter satellites

Satellite Brightness Start Highest point End
(mag) Time Altitude Azimuth Time Altitude Azimuth Time Altitude Azimuth
Cosmos 2219 Rocket 3.3 20:16:02 10° SSE 20:20:19 23° ESE 20:24:38 10° NE
ATLAS CENTAUR R/B 3.2 20:18:04 10° N 20:20:42 18° NE 20:23:19 10° E
Cosmos 1818 3.6 20:16:08 10° SSW 20:21:29 67° ESE 20:26:55 10° NE
ERS-1 Rocket 4.4 20:17:45 10° ESE 20:21:44 24° ENE 20:25:43 10° N
Cosmos 2360 Rocket 2.2 20:17:01 10° SSW 20:22:36 67° ESE 20:28:13 10° NNE
USA 215 4.0 20:19:41 10° ENE 20:25:11 28° SE 20:30:40 10° S
SPOT 5 4.4 20:23:57 10° ESE 20:27:48 23° ENE 20:31:31 10° NNE
Atlas Centaur 2 3.7 20:25:44 10° SW 20:29:45 20° S 20:34:24 10° SE
Landsat 7 4.3 20:26:36 10° SE 20:31:07 45° ENE 20:35:39 10° N
Cosmos 1825 Rocket 4.0 20:27:59 10° SSE 20:32:12 44° E 20:36:27 10° NNE
Cosmos 2333 Rocket 2.9 20:29:02 10° SSE 20:34:01 32° ESE 20:39:03 10° NE
CZ-2C R/B 3.6 20:30:59 10° N 20:36:14 52° WNW 20:41:20 10° SW
Cosmos 1812 Rocket 3.9 20:35:39 10° NNW 20:39:58 66° W 20:44:15 10° S
GEOS 3 Rocket 4.0 20:35:41 10° NE 20:40:53 46° ESE 20:46:01 10° SSW
SL-16 R/B 3.7 20:37:40 10° SW 20:43:02 42° NW 20:48:25 10° NNE
Spot 2 Rocket 3.6 20:39:39 10° SSE 20:44:41 67° ENE 20:49:46 10° N
Cosmos 1602 Rocket 4.5 20:41:38 10° SSW 20:45:56 52° WNW 20:50:19 10° N
IGS 5A 3.6 20:42:27 10° SSE 20:46:29 61° ENE 20:50:37 10° N
Cosmos 1315 Rocket 4.3 20:43:28 10° NNE 20:46:53 25° ENE 20:49:46 13° ESE
OAO 2 Rocket 4.5 20:45:29 10° SW 20:49:52 26° S 20:53:38 13° SE
ATLAS 5 CENTAUR R/B 1.6 20:46:56 10° SW 20:51:03 81° NW 20:55:41 10° NE
CARTOSAT-1 4.4 20:49:41 13° SE 20:53:06 37° ENE 20:57:05 10° N
Meteor 2-10 Rocket 4.1 20:48:17 10° NNW 20:53:19 58° W 20:58:30 10° S
Cosmos 2278 Rocket 3.6 20:49:11 10° N 20:53:57 26° NE 20:58:40 10° ESE
Cosmos 1844 Rocket 2.8 20:50:54 10° NNW 20:56:30 78° WSW 21:01:37 12° SSE
Cosmos 1709 Rocket 4.1 20:50:27 10° S 20:56:40 68° E 21:03:00 10° NNE
Nadezhda 1 Rocket 4.4 20:51:44 10° NNW 20:58:05 66° W 21:04:23 10° S
USA 267 4.3 20:52:03 10° E 20:58:06 41° NNE 21:04:10 10° NW
Meteor 1-11 4.3 20:57:34 10° S 21:03:04 59° E 21:08:40 10° NNE
SPOT 1/Viking Rocket 3.5 21:00:43 13° SSE 21:05:21 79° ENE 21:10:33 10° NNW
Cosmos-2242 3.2 21:03:32 10° NNW 21:07:53 76° W 21:11:57 12° S
Cosmos 1400 Rocket 3.0 21:04:37 10° NNW 21:08:35 70° W 21:12:02 13° S
Cosmos 2221 3.8 21:09:04 10° NNE 21:12:51 28° ENE 21:15:14 17° ESE
Lacrosse 5 rocket 4.2 21:10:50 10° NW 21:13:33 16° N 21:16:11 10° NNE
Resurs 01 Rocket 3.3 21:11:02 10° SSW 21:14:51 29° W 21:18:43 10° NW
Terra 2.4 21:14:58 18° SE 21:18:08 45° ENE 21:22:41 10° N
SAR-Lupe-2 3.5 21:16:08 10° NNE 21:19:44 84° ESE 21:22:58 12° SSW
CZ-4B DEB 4.4 21:23:34 22° S 21:25:38 78° WSW 21:29:00 10° NNW
Cosmos 2058 4.2 21:27:37 20° ESE 21:28:58 24° E 21:32:20 10° NE
Cosmos 1455 4.4 21:28:16 10° NW 21:31:16 22° W 21:34:16 10° SW
Alouette 2 Rocket 4.4 21:28:33 10° NNW 21:32:22 49° W 21:37:00 13° S
NOSS 3-3 (A) 3.9 21:32:22 10° SW 21:38:11 86° SE 21:44:47 10° NE
NOSS 3-3 (C) 3.9 21:32:28 10° SSW 21:38:17 85° SE 21:44:55 10° NE
Cosmos 1825 4.3 21:39:57 13° E 21:40:16 13° E 21:41:57 10° ENE
Cosmos 1980 4.1 21:41:49 22° SSE 21:44:54 42° ESE 21:50:12 10° NE
Cosmos 1538 Rocket 4.1 21:40:11 10° SSW 21:45:33 80° WNW 21:50:55 10° NNE
Cosmos 1076 Rocket 4.3 21:47:33 28° SE 21:48:54 35° E 21:52:49 10° NNE
COSMOS 2428 2.9 21:46:33 10° SSW 21:52:13 76° WNW 21:57:56 10° NNE
Cosmos 2154 Rocket 4.4 21:49:47 24° SSE 21:53:05 45° E 21:58:58 10° NNE
Cosmos 2084 3.6 21:49:40 10° NW 21:54:07 70° SW 21:56:03 32° SSE
Cosmos 2181 Rocket 4.4 21:51:01 10° NNW 21:57:14 60° W 22:02:01 17° SSW
DELTA 2 R/B (1) 4.0 21:52:11 10° SW 21:57:19 38° SSE 22:01:15 16° ESE
ATLAS 2AS CENTAUR R/B 3.4 21:49:54 10° NNW 21:57:23 54° NE 22:02:39 18° ESE
Cosmos 2074 Rocket 3.9 21:54:31 20° S 21:58:58 80° E 22:05:12 10° N
ATLAS CENTAUR R/B 1.4 21:56:18 10° NW 21:59:53 52° WSW 22:00:56 37° S
Thor Agena Rocket 4.4 21:55:35 10° NE 22:00:05 30° E 22:01:29 26° SE
ERS-1 Rocket 3.7 21:56:48 19° SSW 22:00:13 48° W 22:05:07 10° NNW
Cosmos 1869 3.2 21:57:01 10° N 22:01:01 86° ENE 22:02:34 37° S
BREEZE-M DEB (TANK) 3.1 21:55:56 10° WNW 22:01:09 44° N 22:03:24 13° ENE
Genesis I 3.7 22:00:58 37° SE 22:01:12 37° ESE 22:04:49 10° NE
Cosmos 2237 Rocket 2.3 21:59:39 25° S 22:02:53 54° ESE 22:08:26 10° NE
Cosmos 2219 Rocket 2.8 21:58:22 10° SW 22:03:51 56° WNW 22:09:23 10° NNE
Cosmos 1842 Rocket 3.6 22:00:14 10° NNW 22:04:34 72° W 22:06:35 31° S
SPOT 5 3.6 22:02:26 21° SSW 22:05:36 48° W 22:10:16 10° NNW
USA 215 3.2 22:02:05 10° NE 22:08:42 88° NW 22:15:15 10° SW
Cosmos 2344 3.8 22:05:03 21° S 22:09:53 47° ESE 22:17:16 10° NE
Cosmos 158 Rocket 4.0 22:09:32 34° SSE 22:11:22 53° ESE 22:16:09 10° NNE
Gblst 52 Del rocket 4.3 22:07:59 10° WNW 22:13:45 74° SSW 22:17:15 28° SE
Cosmos 2112 Rocket 4.2 22:12:33 32° SSE 22:14:50 55° ESE 22:20:05 10° NNE
Elektron 1 4.0 22:15:07 46° S 22:15:55 67° SE 22:20:38 10° NE
Atlas Centaur 2 4.0 22:13:50 10° SW 22:17:13 18° SSW 22:17:13 18° SSW
Cosmos 2333 Rocket 3.4 22:12:45 10° SW 22:18:09 42° NW 22:23:36 10° NNE
ALOS 2 4.3 22:18:57 19° E 22:20:36 23° ENE 22:24:05 10° NNE
Cosmos 2327 Rocket 4.4 22:17:25 27° S 22:20:58 81° E 22:27:08 10° N
Cosmos 1315 Rocket 4.4 22:19:52 10° NNW 22:23:25 28° W 22:25:29 19° SW
Iridium 2 3.9 22:21:25 10° N 22:25:11 53° E 22:25:48 47° ESE
Cosmos 1892 2.8 22:26:26 42° SSW 22:27:34 71° W 22:31:23 10° N
NOSS 0 Rocket 4.0 22:22:19 12° SSW 22:28:00 80° WNW 22:34:13 10° NNE
EO 1 Del DPAF 3.6 22:26:09 10° NNE 22:29:46 43° E 22:29:55 43° ESE
Cosmos 2056 Rocket 3.9 22:24:46 10° NNW 22:30:08 57° ENE 22:32:26 33° SE
GP-B 4.4 22:28:31 10° NNE 22:32:17 26° E 22:33:05 25° E
Cosmos 1295 Rocket 4.4 22:29:34 32° S 22:32:30 71° E 22:38:35 10° NNE
Cosmos 1606 3.9 22:33:22 10° NNE 22:36:51 30° ENE 22:37:25 29° E
Cosmos 1408 2.4 22:37:57 67° SSW 22:38:23 87° W 22:41:58 10° N
Cosmos 2278 Rocket 2.5 22:32:50 10° NNW 22:38:25 57° WSW 22:40:40 34° S
USA 267 3.2 22:36:39 26° SE 22:40:44 90° NNW 22:47:20 10° NW
Cosmos 44 3.4 22:40:50 41° ESE 22:40:50 41° ESE 22:44:55 10° NE
Cosmos 2297 4.4 22:35:29 10° NNW 22:41:03 48° ENE 22:43:51 27° ESE
Cosmos 1943 Rocket 3.8 22:36:49 10° N 22:41:34 26° NE 22:45:29 13° E
Cosmos 1680 Rocket 3.6 22:39:45 25° SSW 22:42:52 75° WNW 22:48:13 10° NNE
MOS 1-B Rocket 4.3 22:35:51 10° NNE 22:43:27 69° ESE 22:46:38 33° S
SL-16 R/B 2.6 22:46:34 38° SSE 22:47:59 46° ESE 22:53:24 10° NE
Cosmos 371 Rocket 4.3 22:44:58 10° N 22:49:31 38° ENE 22:51:21 27° ESE
Cosmos 2221 4.1 22:46:37 10° NNW 22:50:20 28° W 22:52:05 21° SW
CREW DRAGON DEMO-1 DEB 3.7 22:53:16 43° NE 22:53:16 43° NE 22:55:31 10° ENE
Lacrosse 5 rocket 3.8 22:50:58 10° NNW 22:54:00 20° NNE 22:56:54 10° ENE
Terra 3.7 22:53:50 16° SW 22:56:06 22° W 22:59:46 10° NW
Cosmos 1766 Rocket 3.6 23:01:32 55° SE 23:02:09 62° E 23:06:31 10° NNE
Cosmos 1328 Rocket 3.9 23:01:11 10° N 23:05:24 51° ENE 23:06:06 46° ESE
Okean 3 Rocket 3.5 23:07:35 59° S 23:08:24 84° E 23:12:50 10° N
IRIDIUM 103 4.5 23:08:14 45° SE 23:09:37 61° E 23:14:46 10° N
Meteor 2-3 Rocket 4.1 23:12:54 40° SE 23:14:27 51° E 23:19:57 10° NNE
Cosmos 1825 2.8 23:14:45 43° WSW 23:15:19 47° WNW 23:19:00 10° N
Cosmos 1340 3.0 23:15:33 50° E 23:15:33 50° E 23:19:01 10° NNE
Cosmos 2218 Rocket 4.0 23:17:43 41° SSE 23:20:05 73° E 23:26:23 10° NNE
Cosmos 1624 Rocket 4.3 23:15:10 10° NNW 23:20:16 54° WSW 23:21:30 43° SSW
NOSS 3-4 (A) 4.1 23:13:37 10° NW 23:20:30 56° WSW 23:23:28 36° S
NOSS 3-4 (C) 4.1 23:13:43 10° NW 23:20:38 57° WSW 23:23:36 36° S
Aureole 2 Rocket 3.3 23:18:55 10° NNW 23:20:49 36° NW 23:20:49 36° NW
Cosmos 2366 rocket 4.0 23:21:57 41° S 23:24:18 75° E 23:30:39 10° NNE
Meteor 1-26 Rocket 4.5 23:20:18 10° N 23:26:18 67° ENE 23:28:23 41° SE
IRIDIUM 106 4.2 23:26:31 51° S 23:27:54 88° E 23:33:09 10° N
BREEZE-M DEB (TANK) 4.5 23:25:56 10° W 23:27:09 14° W 23:27:09 14° W
Cosmos 1743 Rocket 4.3 23:29:40 36° ESE 23:29:58 36° E 23:33:58 10° NNE
Cosmos 2369 Rocket 3.2 23:24:56 10° NNW 23:30:12 40° NE 23:33:18 22° ESE
SL-4 R/B 4.0 23:33:31 13° N 23:33:31 13° N 23:33:50 10° N
Cosmos 1959 Rocket 4.4 23:30:32 43° S 23:32:45 88° E 23:38:59 10° N
Cosmos 2151 4.0 23:32:17 32° WSW 23:33:25 39° WNW 23:37:26 10° N
Cosmos 304 Rocket 4.5 23:28:46 10° N 23:33:26 46° ENE 23:35:00 34° ESE
Helios 1A 3.2 23:34:08 53° ESE 23:34:41 59° ENE 23:38:47 10° N
Cosmos 1933 3.2 23:31:20 10° NNW 23:35:22 75° W 23:35:34 73° SW
COSMOS 2455 3.0 23:32:56 10° NNW 23:38:59 69° NE 23:41:47 33° SE
DELTA 2 R/B (1) 4.0 23:37:54 10° WSW 23:42:01 40° SW 23:42:01 40° SW
Cosmos 2237 Rocket 4.0 23:42:25 10° WSW 23:47:16 28° NW 23:52:08 10° N
ATLAS 2AS CENTAUR R/B 3.4 23:41:21 10° NW 23:48:08 40° WSW 23:50:03 34° SSW
Cosmos 1151 Rocket 3.5 23:48:01 10° NNW 23:52:10 46° W 23:52:34 45° WSW
Cosmos 1408 Rocket 3.6 23:52:07 57° SW 23:52:46 65° W 23:57:10 10° N
Cosmos 1782 2.7 23:48:58 10° N 23:52:56 71° E 23:53:04 70° E
Cosmos 1346 Rocket 2.6 23:55:57 85° WSW 23:56:01 86° W 23:59:57 10° N
